Torna al catalogo

ARIANE 1 DEB

AttivoLEO
NORAD 25837·DEBRIS·🇫🇷 France

Lanciato Dec 24, 1979 da Guiana Space Centre

Loading…

Prossimi Passaggi (prossime 24 ore)

TLE

AggiornatoSource: Space-Track

Epoca: Sep 13, 2026, 09:09 UTC

1 25837U 79104L   26256.38169079  .00188829 -78278-5  29107-2 0  9995
2 25837  17.9260 143.9797 1140164  68.6804  75.7755 13.36725533114056

Traccia ARIANE 1 DEB in tempo reale con AllMySat

Download on the App Store